Estació municipal de Vilalleons (Osona, E.N.Guilleries-Savassona)

Consulta les dades en temps real de l'estació municipal de Vilalleons





Hora UTC 13:35
Temperatura 19.7 ºC
Humitat 64.0 %
Pressió 1021.5 hPa
Pluja 0.0 mm
Velocitat vent 6.4 km/h
Direcció vent SW

Webcam

Dades diàries 2026-05-02



Hora UTC (hivern +1h; estiu +2h)
Temperatura (ºC) Humitat (%) Pressió (hPa) Velocitat vent (km/h) Precipitació (mm)
Hora UTC Aire Humitat Pressió Vel. Dir. Vel. Max Dir. Intent. màx 5 min.
00:05 9.3 84.0 1024.0 0.0 ESE 0.0 0.0
00:10 9.3 84.0 1023.9 0.0 ESE 0.0 0.0
00:15 9.4 84.0 1023.7 0.0 ESE 0.0 0.0
00:20 9.5 84.0 1023.8 0.0 ESE 0.0 0.0
00:25 9.6 84.0 1023.6 0.0 ESE 0.0 0.0
00:30 9.7 85.0 1023.8 0.0 ESE 0.0 0.0
00:35 9.9 86.0 1023.7 0.0 ESE 0.0 0.0
00:40 10.1 86.0 1023.7 0.0 ESE 0.0 0.0
00:45 10.1 86.0 1023.8 0.0 ESE 0.0 0.0
00:50 10.2 86.0 1023.8 0.0 ESE 0.0 0.0
00:55 10.3 86.0 1023.7 0.0 ESE 0.0 0.0
01:00 10.4 86.0 1023.6 0.0 ESE 0.0 0.0
01:05 10.5 84.0 1023.6 0.0 ESE 0.0 0.0
01:10 10.6 84.0 1023.7 0.0 ESE 0.0 0.0
01:15 10.6 84.0 1023.7 0.0 ESE 0.0 0.0
01:20 10.6 84.0 1023.7 0.0 ESE 0.0 0.0
01:25 10.5 84.0 1023.7 0.0 ESE 0.0 0.0
01:30 10.5 84.0 1023.7 0.0 ESE 0.0 0.0
01:35 10.4 84.0 1023.5 0.0 ESE 0.0 0.0
01:40 10.5 84.0 1023.5 0.0 ESE 0.0 0.0
01:45 10.5 84.0 1023.5 3.2 ESE 4.8 0.0
01:50 10.6 84.0 1023.4 3.2 ESE 4.8 0.0
01:55 10.6 85.0 1023.3 3.2 ESE 4.8 0.0
02:00 10.6 85.0 1023.3 1.6 ESE 4.8 0.0
02:05 10.6 85.0 1023.1 0.0 ESE 4.8 0.0
02:10 10.6 85.0 1023.1 0.0 ESE 3.2 0.0
02:15 10.7 85.0 1023.1 1.6 ESE 4.8 0.0
02:20 10.7 83.0 1023.1 0.0 ESE 4.8 0.0
02:25 10.8 82.0 1023.1 0.0 ESE 3.2 0.0
02:30 10.9 83.0 1023.1 0.0 ESE 0.0 0.0
02:35 11.1 82.0 1023.0 1.6 ESE 4.8 0.0
02:40 11.2 82.0 1023.0 1.6 WNW 4.8 0.0
02:45 11.2 82.0 1023.1 1.6 WNW 4.8 0.0
02:50 11.1 83.0 1023.0 0.0 WNW 3.2 0.0
02:55 11.1 83.0 1023.1 0.0 WNW 3.2 0.0
03:00 11.1 83.0 1023.0 0.0 WNW 0.0 0.0
03:05 11.0 84.0 1023.0 0.0 WNW 0.0 0.0
03:10 11.0 84.0 1023.0 0.0 WNW 0.0 0.0
03:15 10.9 84.0 1023.0 0.0 WNW 0.0 0.0
03:20 10.9 84.0 1022.9 0.0 WNW 1.6 0.0
03:25 10.9 84.0 1022.8 0.0 WNW 1.6 0.0
03:30 10.8 85.0 1022.9 0.0 WNW 3.2 0.0
03:35 10.8 86.0 1022.9 0.0 WNW 3.2 0.0
03:40 10.8 85.0 1022.7 0.0 WNW 3.2 0.0
03:45 10.8 85.0 1022.8 0.0 WNW 0.0 0.0
03:50 10.8 85.0 1022.8 0.0 WNW 0.0 0.0
03:55 10.8 85.0 1022.8 0.0 WNW 0.0 0.0
04:00 10.8 86.0 1022.7 0.0 WNW 0.0 0.0
04:05 10.9 86.0 1022.7 0.0 WNW 0.0 0.0
04:10 10.9 86.0 1022.7 0.0 WNW 0.0 0.0
04:15 11.0 85.0 1022.6 0.0 WNW 0.0 0.0
04:20 11.1 85.0 1022.7 0.0 WNW 0.0 0.0
04:25 11.2 84.0 1022.6 0.0 WNW 3.2 0.0
04:30 11.4 84.0 1022.6 0.0 WNW 3.2 0.0
04:35 11.6 83.0 1022.7 3.2 WNW 4.8 0.0
04:40 11.6 83.0 1022.6 0.0 WNW 4.8 0.0
04:45 11.6 84.0 1022.5 1.6 WNW 3.2 0.0
04:50 11.4 84.0 1022.6 0.0 WNW 3.2 0.0
04:55 11.4 85.0 1022.7 0.0 WNW 3.2 0.0
05:00 11.3 85.0 1022.7 0.0 WNW 3.2 0.0
05:05 11.3 86.0 1022.7 0.0 WNW 3.2 0.0
05:10 11.3 85.0 1022.8 0.0 WNW 3.2 0.0
05:15 11.2 85.0 1022.8 0.0 WNW 1.6 0.0
05:20 11.1 85.0 1022.9 0.0 WNW 1.6 0.0
05:25 11.2 85.0 1022.8 0.0 WNW 3.2 0.0
05:30 11.1 85.0 1022.9 0.0 WNW 3.2 0.0
05:35 11.1 86.0 1022.8 0.0 WNW 0.0 0.0
05:40 11.2 86.0 1022.9 0.0 WNW 0.0 0.0
05:45 11.2 86.0 1022.8 0.0 WNW 0.0 0.0
05:50 11.2 87.0 1023.1 0.0 WNW 3.2 0.0
05:55 11.2 87.0 1023.1 0.0 WNW 3.2 0.0
06:00 11.2 87.0 1023.1 0.0 WNW 0.0 0.0
06:05 11.3 87.0 1023.1 0.0 WNW 0.0 0.0
06:10 11.3 86.0 1023.1 0.0 WNW 0.0 0.0
06:15 11.4 87.0 1023.2 0.0 WNW 0.0 0.0
06:20 11.6 87.0 1023.2 0.0 WNW 0.0 0.0
06:25 11.6 86.0 1023.2 0.0 WNW 0.0 0.0
06:30 11.7 84.0 1023.1 0.0 WNW 0.0 0.0
06:35 11.8 84.0 1023.1 0.0 WNW 0.0 0.0
06:40 11.9 84.0 1023.3 0.0 WNW 0.0 0.0
06:45 12.0 85.0 1023.3 0.0 WNW 0.0 0.0
06:50 12.1 84.0 1023.1 0.0 NW 0.0 0.0
06:55 12.1 84.0 1023.3 0.0 NW 0.0 0.0
07:00 12.2 84.0 1023.3 0.0 NW 0.0 0.0
07:05 12.2 84.0 1023.3 0.0 NW 0.0 0.0
07:10 12.2 84.0 1023.3 0.0 NW 0.0 0.0
07:15 12.2 84.0 1023.2 0.0 NW 0.0 0.0
07:20 12.3 84.0 1023.1 0.0 NW 0.0 0.0
07:25 12.5 84.0 1023.1 0.0 NW 0.0 0.0
07:30 12.6 85.0 1022.9 0.0 NW 0.0 0.0
07:35 12.7 84.0 1023.0 0.0 NW 0.0 0.0
07:40 12.8 83.0 1022.9 0.0 NW 0.0 0.0
07:45 13.0 83.0 1023.2 0.0 NW 0.0 0.0
07:50 13.1 82.0 1023.1 0.0 W 0.0 0.0
07:55 13.2 82.0 1023.0 0.0 W 0.0 0.0
08:00 13.4 82.0 1023.1 0.0 W 0.0 0.0
08:05 13.4 82.0 1023.2 0.0 W 0.0 0.0
08:10 13.5 82.0 1023.2 0.0 W 0.0 0.0
08:15 13.4 82.0 1023.3 0.0 W 0.0 0.0
08:20 13.5 82.0 1023.1 0.0 W 0.0 0.0
08:25 13.6 82.0 1023.2 0.0 W 0.0 0.0
08:30 13.6 81.0 1023.4 0.0 W 0.0 0.0
08:35 13.6 81.0 1023.3 0.0 W 0.0 0.0
08:40 13.6 81.0 1023.4 0.0 W 0.0 0.0
08:45 13.6 81.0 1023.3 0.0 W 0.0 0.0
08:50 13.5 82.0 1023.3 0.0 WNW 0.0 0.0
08:55 13.6 81.0 1023.3 1.6 W 4.8 0.0
09:00 13.5 81.0 1023.3 0.0 W 4.8 0.0
09:05 13.5 82.0 1023.3 4.8 W 4.8 0.0
09:10 13.6 83.0 1023.4 4.8 W 4.8 0.0
09:15 13.6 82.0 1023.4 1.6 W 4.8 0.0
09:20 13.6 82.0 1023.4 0.0 W 3.2 0.0
09:25 13.6 81.0 1023.4 3.2 W 4.8 0.0
09:30 13.6 82.0 1023.4 0.0 W 4.8 0.0
09:35 13.6 81.0 1023.6 0.0 W 3.2 0.0
09:40 13.7 81.0 1023.4 4.8 NW 6.4 0.0
09:45 13.7 80.0 1023.2 8.0 NNW 8.0 0.0
09:50 13.8 80.0 1023.3 1.6 N 8.0 0.0
09:55 14.0 80.0 1023.1 0.0 NW 6.4 0.0
10:00 14.2 79.0 1023.2 4.8 N 8.0 0.0
10:05 14.5 79.0 1023.3 3.2 NW 8.0 0.0
10:10 14.7 77.0 1023.2 1.6 N 4.8 0.0
10:15 14.9 76.0 1023.2 6.4 WNW 8.0 0.0
10:20 15.1 75.0 1022.9 1.6 NNW 8.0 0.0
10:25 15.2 75.0 1023.1 4.8 NW 9.7 0.0
10:30 15.3 74.0 1023.0 3.2 NNW 9.7 0.0
10:35 15.5 74.0 1023.1 4.8 NNW 8.0 0.0
10:40 15.5 72.0 1023.0 4.8 NNW 9.7 0.0
10:45 15.5 73.0 1023.0 3.2 N 9.7 0.0
10:50 15.5 73.0 1023.0 4.8 NNW 6.4 0.0
10:55 15.3 72.0 1022.9 3.2 NNE 8.0 0.0
11:00 15.2 74.0 1022.8 3.2 NW 8.0 0.0
11:05 15.2 73.0 1022.9 3.2 NW 8.0 0.0
11:10 15.3 74.0 1022.7 0.0 NNW 8.0 0.0
11:15 15.4 73.0 1022.4 1.6 NNE 6.4 0.0
11:20 15.4 72.0 1022.4 6.4 NW 6.4 0.0
11:25 15.5 71.0 1022.5 4.8 NNW 9.7 0.0
11:30 15.7 72.0 1022.6 4.8 NNW 9.7 0.0
11:35 15.8 72.0 1022.3 3.2 SW 6.4 0.0
11:40 16.2 72.0 1022.3 4.8 NW 8.0 0.0
11:45 16.4 73.0 1022.3 3.2 W 12.9 0.0
11:50 16.9 73.0 1022.5 1.6 SW 12.9 0.0
11:55 17.3 72.0 1022.3 1.6 SW 12.9 0.0
12:00 17.4 69.0 1022.3 1.6 NNE 9.7 0.0
12:05 17.3 68.0 1022.2 4.8 NW 12.9 0.0
12:10 17.4 70.0 1022.3 4.8 WSW 12.9 0.0
12:15 17.8 69.0 1022.4 8.0 N 9.7 0.0
12:20 17.5 68.0 1022.5 3.2 NNE 12.9 0.0
12:25 17.7 68.0 1022.2 4.8 NNW 12.9 0.0
12:30 17.9 66.0 1022.3 1.6 N 11.3 0.0
12:35 18.0 65.0 1022.2 3.2 NW 8.0 0.0
12:40 18.4 69.0 1022.2 4.8 SW 8.0 0.0
12:45 18.3 64.0 1022.0 4.8 N 12.9 0.0
12:50 17.9 65.0 1022.0 6.4 NNE 12.9 0.0
12:55 17.7 66.0 1022.0 1.6 NW 12.9 0.0
13:00 17.9 65.0 1022.0 3.2 NNW 12.9 0.0
13:05 18.1 67.0 1022.0 0.0 NNW 8.0 0.0
13:10 18.3 65.0 1021.7 3.2 ESE 9.7 0.0
13:15 18.6 65.0 1021.8 3.2 ESE 9.7 0.0
13:20 19.1 63.0 1021.7 1.6 SE 8.0 0.0
13:25 19.1 64.0 1021.7 3.2 SSE 8.0 0.0
13:30 19.2 61.0 1021.5 1.6 SW 4.8 0.0
13:35 19.7 64.0 1021.5 6.4 SW 8.0 0.0
Màxima 19.7 87.0 1024.0 8.0 N 12.9 0.0
Mínima 9.3 61.0 1021.5
Total 0.0